Location: Sungai Anya
(2.6167°N, 114.0500°E)
Time: 19:46:27
(UTC+00:00)

CZ-4B R/B - Pass Details

Date: 19 October 2021
Orbit: 808 x 882 km, 99.1° (Epoch: 08 December)

Event Time Altitude Azimuth Distance (km) Brightness Sun altitude
Rises 10:52:20 0° 165° (SSE) 3,412 6.3 -11.2°
Reaches altitude 10° 10:54:42 10° 163° (SSE) 2,485 5.6 -11.8°
Maximum altitude 11:00:14 80° 77° (ENE) 882 3.2 -13.1°
Drops below altitude 10° 11:05:50 10° 351° (N) 2,518 5.7 -14.5°
Sets 11:08:14 0° 350° (N) 3,460 6.4 -15.1°
